Home > Weather > Rio Grande > Past weeks

Flag for Brazil Weather for the Past 2 Weeks in Rio Grande, Rio Grande do Sul, Brazil

Now
59 °F

Scattered clouds.


Feels Like: 57 °F
Forecast: 47 / 58 °F
Wind: 12 mph from West

Location: Pelotas Airport

Current Time: Apr 29, 2016 at 1:33:25 PM

Latest Report: Apr 29, 2016 at 1:00 PM


Visibility: N/A

Pressure: 30.15 "Hg

Humidity: 51%

Dew Point: 41 °F

Location of Rio GrandeLocation

Historic Weather in Rio Grande — Graph

°F

Rio Grande Temperature Yesterday

Maximum temperature yesterday: 63 °F (at 2:00 PM)
Minimum temperature yesterday: 45 °F (at 3:00 AM)
Average temperature yesterday: 51 °F

High & Low Weather Summary for the Past Weeks

 TemperatureHumidityPressure
High97 °F (Apr 16, 1:00 PM)100% (Apr 15, 1:00 AM)30.21 "Hg (Apr 15, 1:00 AM)
Low32 °F (Apr 24, 9:00 AM)39% (Apr 27, 2:00 PM)29.56 "Hg (Apr 25, 5:00 AM)
Average68 °F84%29.92 "Hg
* Reported Apr 14 12:00 Noon — Apr 29 12:00 Noon, Rio Grande, Weather by CustomWeather, © 2016

Note: Actual official high and low records may vary slightly from our data, if they occured in-between our weather recording intervals... More about our weather records

Advertising

Rio Grande Weather History for the Previous 24 Hours

Scroll right to see more
 ConditionsComfort  
Time TempWeatherWind HumidityBarometerVisibility
12:00 PM
Fri, Apr 29
55 °FPassing clouds.6 mph63%30.18 "HgN/A
11:00 AM55 °FSunny.8 mph63%30.21 "Hg10 mi
10:00 AM52 °FSunny.7 mph72%30.21 "Hg10 mi
9:00 AM48 °FSunny.5 mph82%30.21 "Hg10 mi
8:00 AM46 °FScattered clouds.5 mph87%30.21 "HgN/A
7:00 AM43 °FScattered clouds.3 mph93%30.21 "HgN/A
6:00 AM45 °FSunny.3 mph87%30.18 "Hg10 mi
5:00 AM45 °FClear.3 mph87%30.18 "Hg10 mi
4:00 AM45 °FPassing clouds.3 mph87%30.18 "HgN/A
3:00 AM46 °FPassing clouds.6 mph82%30.18 "HgN/A
2:00 AM45 °FClear.6 mph87%30.21 "Hg10 mi
1:00 AM45 °FClear.5 mph87%30.21 "Hg10 mi
12:00 AM46 °FClear.5 mph82%30.21 "Hg10 mi
11:00 PM
Thu, Apr 28
46 °FClear.7 mph82%30.21 "Hg10 mi
10:00 PM46 °FClear.5 mph87%30.21 "Hg10 mi
9:00 PM48 °FClear.3 mph82%30.18 "Hg10 mi
8:00 PM50 °FClear.3 mph76%30.18 "Hg10 mi
7:00 PM52 °FClear.2 mph67%30.18 "Hg10 mi
6:00 PM55 °FPassing clouds.6 mph55%30.18 "HgN/A
5:00 PM59 °FPassing clouds.10 mph48%30.18 "HgN/A
4:00 PM61 °FPassing clouds.16 mph45%30.15 "HgN/A
3:00 PM61 °FScattered clouds.18 mph48%30.18 "HgN/A
2:00 PM63 °FPassing clouds.14 mph42%30.18 "HgN/A
1:00 PM61 °FPassing clouds.14 mph45%30.18 "HgN/A
Weather by CustomWeather, © 2016

See weather overviewHow to use our weather pages